Vertical_Velocity
-4 1 -1 3 3 -3 -1 -1 -3 2 -1 -5 -2 -2 -6 4 -3 -5 -0 0 2 2 0 0 4 4 1 3 3 4 1 -2 2 8 3 1 3 -5 -5 -2 10 10 7
6 -0 5 4 -2 -1 -1 0 -3 -6 -2 -4 3 0 6 -0 1 -1 -3 -0 2 2 1 3 2 0 2 1 1 1 -1 1 6 4 1 1 4 1 3 11 12 -3 -13
-6 -4 2 0 7 -2 -8 -9 -1 0 5 17 6 2 1 -1 -3 -9 -4 -0 2 -0 0 2 0 0 1 -6 -4 0 4 0 6 7 12 2 -2 47 -10 -4 -30 -3 -6
3 0 -1 1 -0 -7 4 1 5 2 5 6 -2 -3 4 -4 3 2 7 0 3 2 1 1 -2 5 8 6 -3 9 4 16 -4 16 26 10 -14 -15 -7 -13 14 -14 4
-2 2 -2 1 1 5 5 5 2 1 0 1 2 1 -2 6 1 2 -1 2 2 -1 2 -0 5 1 6 3 -6 2 6 7 11 -3 4 -2 8 -8 5 -6 -1 4 -4
0 -0 1 1 -0 1 2 4 2 -0 1 2 -2 -5 -3 0 1 3 -1 -1 4 3 2 -0 0 6 3 -2 -1 2 3 2 9 19 0 -3 -14 2 -6 -9 -14 2 -8
-1 -3 -4 -0 -3 -1 0 2 2 -0 2 0 -1 1 3 3 1 2 2 3 2 -2 2 4 3 -1 2 1 7 2 2 9 19 8 1 -8 -3 -7 11 -1 5 -3 -8
-1 3 4 1 0 -1 0 -1 -1 -5 -0 1 2 -1 -0 -5 -4 -3 -1 -4 -6 -2 9 3 3 3 4 -0 -0 6 5 6 21 1 -6 5 -7 -26 1 -0 2 -4 3
5 3 7 3 -2 -0 -2 -1 -1 -1 -2 -1 -2 -3 -1 -4 -3 2 -2 -4 -2 -0 -0 2 2 2 1 2 4 4 15 -1 8 5 3 2 -12 4 4 -3 0 4 -2
-7 -5 -1 4 5 4 3 -2 -0 -1 4 2 -0 -1 -1 -0 3 -2 -5 1 3 3 1 4 2 1 5 -2 4 -1 -2 8 -6 -8 2 -5 6 1 -0 -4 -3 -5 7
-0 0 -4 -8 -3 -1 -1 -3 -1 1 0 -0 3 -1 0 2 3 -4 2 0 -0 2 -1 -0 1 -3 -1 -3 5 -3 1 0 7 3 -6 6 -4 -1 -0 -0 0 -1 -3
-2 -3 -4 -5 -5 -6 3 0 1 1 0 6 2 -1 4 4 3 -1 0 0 -5 -0 1 -1 -3 -2 -2 -2 8 1 -1 3 2 -2 0 7 6 5 -2 -1 2 -5 -2
-2 -3 -5 -7 -5 -4 -3 4 1 3 8 4 4 4 4 4 -1 3 3 1 2 -1 -0 -2 -2 1 -0 -0 4 -1 5 2 0 -1 -3 1 -5 1 2 2 -1 -0 1
-0 -1 -4 -3 -1 3 -2 -3 -5 -1 4 5 8 2 2 1 1 7 2 3 3 1 3 1 2 1 -4 8 1 2 7 2 1 1 5 5 -2 2 -5 -4 -6 -1 3
-5 -2 -2 -3 1 -2 -1 3 3 1 -3 -5 2 0 20 14 13 4 9 12 5 6 4 3 2 1 -1 -2 2 2 -5 3 3 4 0 -1 2 4 5 -3 -1 5 -2
0 1 0 -1 0 -1 -2 1 2 2 -1 3 6 3 2 -1 2 3 2 2 11 7 1 -1 3 -0 0 -1 1 6 3 8 8 10 5 3 3 1 -4 -6 4 -1 -3
-2 -0 -2 -1 3 -1 0 -1 0 3 4 5 1 -0 -0 0 2 2 1 5 3 -0 -0 -3 -2 -2 -1 1 5 8 1 1 14 0 -1 2 -2 2 -1 0 1 0 -1
2 1 2 3 5 6 3 5 1 0 2 -0 -1 -1 -0 -1 -1 0 -0 -1 2 5 8 1 2 2 -2 0 9 8 11 8 8 1 1 5 5 1 1 5 4 -1 -0
2 -0 2 5 -3 -1 1 2 3 -2 -1 -3 -2 -1 -4 -4 1 2 1 3 3 4 2 3 1 5 5 18 16 2 -6 29 21 17 -0 -1 5 -6 1 10 4 1 2
-2 -2 -3 -3 6 -2 -0 -2 -1 -1 -5 -4 -2 -1 2 3 -0 2 -0 1 4 8 6 2 0 -3 15 5 35 4 5 -5 -22 -8 3 4 1 -2 13 6 2 1 4
-5 -6 2 -4 -2 -6 -2 1 -6 -5 -2 -4 -5 -2 -1 -4 -1 -2 -3 -4 -4 -5 -4 -0 2 12 15 21 7 -11 1 3 -4 9 -6 -5 -11 -2 4 -2 0 1 -1
6 1 -8 -2 -5 -1 -1 -5 -4 -1 0 -1 -1 -3 -1 -3 -2 -1 -1 -4 -3 -2 0 4 8 10 14 0 -14 8 0 -2 -2 -4 2 -2 3 1 2 -5 3 -4 -7
3 -6 -0 -1 -0 -2 -2 -2 -3 -2 -2 -3 -2 -2 -4 -2 -3 -8 -6 -0 2 2 8 11 14 19 6 5 5 -6 -5 1 2 3 0 6 3 -2 -5 -2 -1 -1 -2
3 5 -4 2 -1 1 2 5 3 -1 -0 1 -3 -4 -5 -5 -5 -3 -6 -3 2 8 9 5 6 1 -8 -7 -8 -10 -6 -1 -1 4 0 -4 -3 -5 -1 -0 -2 -7 4
4 1 -1 -3 -0 2 -1 -1 -2 -2 0 -1 0 -1 -1 -1 3 -2 -2 -1 -2 2 -4 -4 -3 -1 -1 0 4 1 5 7 3 1 -1 4 -2 3 -2 1 0 -8 7
-3 -0 -3 -3 -3 -4 -4 -6 -2 -2 -3 -6 -5 -3 -1 -2 -1 -1 3 2 -1 -2 -4 -1 -3 -3 -1 -1 -5 -5 1 3 3 6 2 -3 2 -8 9 -5 -3 1 4
Height
1469 1471 1472 1473 1474 1477 1480 1483 1488 1491 1495 1497 1499 1500 1500 1503 1505 1506 1509 1511 1513 1516 1518 1519 1521 1523 1525 1527 1529 1530 1530 1529 1530 1532 1533 1533 1531 1529 1529 1527 1532 1534 1534
1465 1465 1464 1464 1464 1466 1469 1473 1478 1484 1486 1489 1491 1494 1496 1498 1499 1501 1503 1505 1507 1510 1512 1514 1515 1517 1519 1521 1522 1523 1522 1523 1525 1527 1528 1527 1526 1525 1527 1530 1526 1536 1536
1459 1457 1456 1456 1457 1458 1461 1464 1467 1473 1477 1481 1485 1488 1491 1492 1493 1494 1496 1498 1502 1504 1507 1508 1510 1510 1512 1512 1513 1514 1514 1515 1519 1520 1520 1512 1521 1512 1521 1522 1526 1523 1525
1453 1447 1444 1446 1447 1451 1454 1458 1462 1466 1471 1474 1477 1479 1481 1482 1484 1488 1491 1493 1496 1498 1500 1502 1503 1504 1504 1505 1504 1505 1506 1508 1508 1509 1503 1489 1504 1510 1509 1512 1520 1519 1525
1449 1444 1442 1442 1445 1448 1450 1453 1457 1460 1462 1466 1470 1473 1475 1477 1479 1483 1485 1488 1491 1492 1493 1494 1494 1494 1495 1495 1495 1496 1496 1497 1495 1492 1487 1498 1498 1511 1508 1513 1518 1509 1514
1449 1446 1445 1445 1447 1448 1449 1451 1453 1455 1458 1461 1464 1466 1469 1471 1473 1476 1478 1481 1483 1483 1485 1486 1486 1486 1486 1486 1487 1488 1489 1488 1485 1480 1477 1484 1495 1499 1503 1502 1507 1508 1505
1452 1450 1449 1448 1449 1450 1451 1452 1452 1453 1455 1457 1459 1460 1462 1465 1468 1471 1473 1474 1475 1475 1475 1477 1477 1477 1478 1478 1480 1480 1480 1480 1478 1473 1476 1488 1480 1494 1495 1496 1500 1501 1500
1455 1454 1454 1453 1453 1453 1453 1453 1454 1454 1454 1454 1453 1455 1456 1458 1460 1462 1465 1466 1467 1467 1468 1469 1469 1470 1470 1470 1470 1471 1472 1472 1471 1465 1473 1478 1477 1485 1494 1493 1494 1493 1494
1458 1457 1457 1456 1455 1454 1454 1455 1453 1452 1452 1451 1451 1451 1452 1452 1452 1455 1456 1458 1459 1459 1460 1461 1461 1463 1462 1463 1463 1463 1460 1464 1463 1466 1468 1470 1474 1481 1487 1488 1489 1487 1485
1458 1457 1457 1456 1455 1454 1452 1451 1450 1449 1448 1447 1446 1446 1446 1447 1447 1449 1449 1450 1451 1451 1451 1452 1453 1454 1455 1456 1455 1455 1455 1456 1458 1459 1464 1468 1473 1476 1478 1480 1480 1480 1478
1455 1454 1454 1452 1451 1449 1447 1444 1443 1441 1440 1440 1440 1439 1440 1440 1441 1441 1442 1443 1445 1444 1444 1444 1444 1445 1445 1446 1445 1445 1446 1447 1450 1453 1458 1462 1466 1468 1470 1472 1472 1471 1470
1450 1449 1447 1445 1443 1441 1438 1435 1433 1432 1431 1432 1432 1433 1433 1434 1434 1435 1436 1437 1438 1438 1438 1438 1438 1437 1438 1438 1438 1439 1441 1441 1444 1446 1452 1456 1459 1461 1461 1461 1461 1462 1464
1444 1444 1443 1441 1438 1434 1430 1425 1423 1421 1422 1422 1423 1425 1426 1427 1427 1428 1429 1430 1430 1430 1430 1430 1430 1431 1431 1433 1433 1434 1435 1437 1439 1441 1445 1448 1451 1452 1453 1454 1455 1457 1457
1440 1439 1437 1435 1431 1426 1422 1418 1416 1414 1412 1413 1416 1418 1419 1420 1420 1421 1422 1423 1422 1422 1422 1423 1424 1425 1426 1427 1427 1428 1429 1430 1433 1435 1439 1439 1440 1443 1444 1446 1448 1449 1447
1439 1437 1435 1432 1428 1422 1418 1414 1411 1409 1407 1407 1409 1411 1413 1413 1413 1414 1414 1414 1413 1414 1416 1417 1418 1419 1419 1419 1419 1421 1422 1424 1427 1430 1433 1434 1435 1435 1435 1438 1439 1439 1437
1439 1438 1436 1432 1427 1422 1418 1414 1410 1406 1404 1404 1404 1404 1404 1403 1402 1402 1404 1406 1407 1408 1409 1410 1410 1411 1410 1411 1411 1412 1413 1415 1416 1419 1423 1426 1427 1427 1428 1428 1430 1430 1431
1439 1438 1436 1433 1429 1424 1420 1417 1413 1409 1404 1401 1401 1400 1399 1397 1396 1395 1397 1399 1399 1400 1400 1400 1400 1401 1401 1402 1403 1404 1405 1408 1409 1411 1414 1416 1418 1418 1418 1419 1419 1422 1423
1437 1436 1435 1433 1430 1426 1423 1421 1416 1411 1407 1403 1402 1401 1399 1397 1395 1393 1392 1392 1392 1391 1391 1391 1390 1390 1391 1392 1393 1394 1397 1400 1401 1401 1405 1408 1407 1408 1410 1412 1411 1411 1415
1436 1435 1435 1431 1428 1426 1422 1419 1415 1411 1408 1405 1403 1401 1399 1397 1395 1393 1390 1388 1386 1385 1383 1382 1382 1383 1384 1385 1385 1389 1397 1404 1398 1395 1397 1400 1401 1402 1409 1407 1405 1407 1410
1436 1434 1433 1431 1426 1424 1421 1416 1412 1408 1406 1405 1403 1401 1397 1395 1392 1390 1387 1385 1384 1381 1379 1376 1376 1376 1379 1381 1382 1380 1384 1386 1394 1398 1396 1396 1396 1402 1402 1400 1402 1401 1405
1429 1431 1431 1427 1425 1422 1419 1414 1410 1409 1406 1402 1400 1398 1395 1392 1390 1387 1384 1381 1380 1378 1376 1374 1371 1371 1373 1373 1376 1379 1385 1384 1386 1387 1386 1387 1395 1395 1394 1396 1396 1399 1401
1424 1419 1429 1422 1423 1420 1416 1413 1410 1408 1404 1401 1397 1395 1392 1389 1387 1384 1381 1378 1374 1373 1371 1369 1367 1368 1369 1372 1378 1380 1382 1383 1383 1386 1385 1386 1387 1388 1387 1391 1391 1393 1397
1420 1421 1423 1421 1419 1416 1413 1410 1406 1404 1401 1398 1395 1392 1389 1388 1385 1382 1380 1377 1374 1371 1369 1369 1370 1370 1372 1375 1375 1377 1381 1382 1383 1384 1384 1380 1381 1382 1383 1385 1386 1388 1389
1419 1416 1417 1417 1416 1412 1411 1406 1403 1400 1398 1395 1392 1389 1388 1386 1383 1381 1379 1377 1375 1374 1372 1372 1373 1374 1375 1374 1374 1374 1374 1376 1379 1378 1377 1377 1375 1377 1379 1380 1383 1386 1386
1415 1415 1414 1414 1414 1411 1408 1406 1403 1401 1397 1393 1391 1388 1387 1386 1383 1381 1381 1380 1379 1377 1377 1377 1376 1374 1373 1374 1373 1373 1373 1374 1375 1373 1371 1372 1370 1374 1374 1377 1378 1384 1382
1416 1415 1413 1414 1412 1411 1409 1407 1403 1398 1395 1392 1389 1388 1387 1386 1385 1384 1383 1382 1381 1379 1377 1375 1374 1374 1372 1371 1371 1371 1370 1370 1370 1369 1369 1368 1369 1371 1370 1371 1377 1378 1378